Location: Crivadia
(45.4667°N, 23.2000°E)
Time: 01:52:09
(UTC+00:00)

Daily predictions for brighter satellites

Satellite Brightness Start Highest point End
(mag) Time Altitude Azimuth Time Altitude Azimuth Time Altitude Azimuth
CZ-3 R/B 4.4 01:45:41 44° SSW 01:45:41 44° SSW 01:57:10 10° SE
Cosmos 2082 Rocket 4.1 02:07:34 24° ESE 02:08:06 24° ESE 02:12:33 10° NE
COSMOS 2455 4.3 02:14:59 32° NE 02:14:59 32° NE 02:19:55 10° ESE
Cosmos 1980 Rocket 3.4 02:32:25 36° SE 02:32:25 36° SE 02:35:48 10° SE
Cosmos 2098 Rocket 4.4 02:38:52 51° ESE 02:38:52 51° ESE 02:43:37 10° SSE
Tiangong 1.5 02:55:00 10° ESE 02:55:00 10° ESE 02:55:01 10° ESE
Cosmos 2333 Rocket 4.3 02:51:54 15° N 02:55:00 21° NE 02:59:20 10° E
Cosmos 2142 Rocket 4.4 03:02:15 40° N 03:04:43 84° E 03:10:55 10° S
USA 234 4.2 03:04:03 10° NE 03:09:45 33° N 03:10:26 32° NNW
Helios 1A Rocket 4.3 03:18:58 10° SE 03:21:52 28° ENE 03:22:13 27° ENE
Cosmos 2322 Rocket 4.1 03:19:55 12° N 03:24:12 25° NE 03:28:51 10° ESE
SL-4 R/B 3.8 03:29:31 18° NE 03:29:31 18° NE 03:30:47 10° ENE
Nadezhda 4 Rocket 4.0 03:23:59 10° S 03:30:19 84° E 03:36:37 10° N
NOSS 2-1 (D) 3.4 03:32:01 75° E 03:32:01 75° E 03:36:30 10° SE
Cosmos 1726 Rocket 4.0 03:31:07 25° N 03:33:31 58° ENE 03:37:41 10° SSE
USA 59 Rocket -0.2 03:34:44 82° SE 03:34:44 82° SE 03:39:23 10° SE
Cosmos 2237 4.2 03:33:42 33° NNW 03:36:25 80° ENE 03:42:07 10° SSE
CZ-4 R/B 3.9 03:32:46 10° NNE 03:37:25 71° ESE 03:42:00 10° S
NOSS 3-1 (C) 4.1 03:34:06 29° NNW 03:38:16 81° NE 03:47:10 10° SE
NOSS 2-1 (E) 3.3 03:39:18 70° NNE 03:39:33 73° NE 03:44:12 10° SE
COSMOS 2406 3.4 03:34:33 10° SSW 03:40:11 71° ESE 03:45:51 10° NNE
Cosmos 841 Rocket 3.4 03:36:33 10° SSW 03:41:46 88° ESE 03:47:04 10° NNE
BREEZE-M DEB (TANK) 4.3 03:44:05 36° W 03:46:09 47° SW 03:49:51 10° SE
Cosmos 1933 3.9 03:52:07 38° SSW 03:52:07 38° SSW 03:54:44 10° S
SL-16 R/B 2.6 03:46:48 17° NNW 03:51:09 60° ENE 03:56:44 10° SE
Cosmos 2082 Rocket 2.2 03:49:32 33° WSW 03:51:46 54° WNW 03:57:18 10° NNE
Cosmos 1892 Rocket 3.8 03:47:35 10° S 03:51:54 70° E 03:56:17 10° NNE
NOSS 2-1 (C) 3.3 03:58:58 53° W 03:59:36 63° SW 04:04:21 10° SSE
COSMOS 2455 3.0 03:58:10 32° NW 04:00:43 54° WSW 04:06:33 10° S
Meteor 2-20 4.5 03:56:03 10° N 04:02:13 83° E 04:08:18 10° S
IRS-1D 3.4 03:58:20 10° N 04:03:15 59° WNW 04:08:13 10° SSW
Cosmos 1898 Rocket 3.7 04:02:27 32° NW 04:04:31 50° WSW 04:09:34 10° S
ATLAS 3B R/B 4.5 03:59:03 12° NNW 04:04:35 25° NNE 04:10:45 10° ENE
BREEZE-M DEB (TANK) 2.9 04:12:06 47° WNW 04:12:33 54° NNW 04:14:50 10° ENE
Cosmos 1980 Rocket 3.4 04:14:14 21° WSW 04:14:14 21° WSW 04:17:51 10° SSW
Cosmos 2278 3.8 04:09:08 13° NNW 04:14:16 78° ENE 04:19:54 10° SSE
Cosmos 1627 Rocket 4.4 04:11:00 10° S 04:17:08 81° W 04:23:17 10° N
Cosmos 2369 4.3 04:16:16 26° WNW 04:18:31 35° WSW 04:23:34 10° S
Cosmos-2242 3.0 04:14:17 10° N 04:18:32 77° E 04:22:43 10° SSE
COSMO-SKYMED 1 2.6 04:16:02 10° S 04:20:01 49° W 04:22:50 18° NNW
BREEZE-M DEB (TANK) 3.0 04:20:47 34° NW 04:21:28 42° N 04:25:46 10° ENE
SKYMED 2 4.2 04:18:26 10° SSW 04:22:20 33° W 04:24:01 25° NW
Meteor 2-2 Rocket 4.3 04:16:42 10° N 04:22:26 88° E 04:28:13 10° S
Meteor 2-20 Rocket 4.3 04:18:37 10° N 04:24:25 87° E 04:30:07 10° S
Cosmos 2058 Rocket 3.0 04:20:25 10° N 04:24:53 83° W 04:29:17 10° S
Cosmos 1484 Rocket 2.3 04:24:54 10° N 04:28:20 78° WNW 04:31:42 10° SSW
Tiangong -0.1 04:27:21 16° SW 04:28:33 19° SSW 04:30:53 10° SSE
Cosmos 1937 Rocket 3.9 04:25:55 19° NW 04:29:10 40° WSW 04:33:56 10° S
NOAA 12 4.4 04:24:27 10° N 04:29:24 41° WNW 04:34:18 10° SW
Okean 1 2.9 04:29:57 10° N 04:33:33 83° W 04:37:05 10° S
ARIANE 5 R/B 4.2 04:29:13 10° NNE 04:34:04 38° E 04:38:54 10° SSE
Cosmos 2333 Rocket 2.2 04:34:11 10° NNW 04:39:59 79° WSW 04:45:42 10° SSE
BREEZE-M DEB (TANK) 4.5 04:16:20 10° W 04:40:14 72° NNW 04:45:23 10° ENE
NOSS 3-1 (A) 4.1 04:37:46 11° NW 04:44:49 86° SW 04:53:49 10° SSE
IRIDIUM 114 4.3 04:40:43 10° S 04:45:56 90° ESE 04:51:12 10° N
Cosmos 2360 Rocket 2.3 04:41:06 10° NNW 04:46:46 82° ENE 04:52:23 10° SSE
Cosmos 2026 Rocket 4.1 04:41:04 10° SSW 04:46:51 46° WNW 04:52:43 10° N
SMAP 3.4 04:42:29 10° NNE 04:47:09 69° ESE 04:51:46 10° S
BREEZE M DEB (TANK) 2.6 04:47:28 10° SW 04:49:42 51° SE 04:53:54 10° ENE
USA 234 4.1 04:45:47 10° E 04:51:46 39° NNE 04:57:45 10° NW
Cosmos 1814 Rocket 4.0 04:47:36 10° SSW 04:52:49 89° WNW 04:58:09 10° NNE
Landsat 7 4.3 04:48:28 10° NNE 04:53:07 64° E 04:57:43 10° S
CBERS-1 4.0 04:48:59 10° N 04:54:04 69° WNW 04:59:06 10° SSW
Helios 1A Rocket 4.0 04:52:12 10° SW 04:54:30 17° W 04:55:47 14° WNW
IRIDIUM 103 4.3 04:49:54 10° S 04:55:06 76° W 05:00:21 10° N
IGS 5A 3.6 04:55:27 10° N 04:59:16 44° WNW 05:03:04 10° SW
Cosmos 1758 Rocket 3.5 04:58:02 10° SSW 05:02:28 77° W 05:06:53 10° N
Meteor 2-6 Rocket 4.4 04:57:24 10° NNW 05:03:23 78° W 05:09:18 10° S
Cosmos 2219 Rocket 2.5 05:00:00 10° NNW 05:05:40 70° ENE 05:11:16 10° SSE
SL-4 R/B 2.0 05:03:15 12° NW 05:06:05 43° NNE 05:09:08 10° E
Thor Agena Rocket 3.4 05:01:17 10° NNE 05:06:22 77° WNW 05:11:23 10° SSW
S3M 4.5 05:00:32 10° N 05:06:42 65° ENE 05:12:47 10° SSE
Cosmos 1743 2.2 05:04:32 10° S 05:07:45 85° W 05:11:01 10° N
Cosmos 2322 Rocket 2.3 05:03:02 10° NNW 05:08:40 62° WSW 05:14:14 10° S
Cosmos 1553 Rocket 4.1 05:03:09 10° NNW 05:09:26 61° W 05:15:42 10° S
Cosmos 1733 2.4 05:10:19 10° SW 05:11:56 26° WNW 05:13:35 10° NNW
IRIDIUM 106 4.5 05:08:24 10° SSW 05:13:28 52° W 05:18:35 10° N
Cosmos 2333 4.3 05:17:22 10° NNW 05:23:04 66° WSW 05:28:41 10° SSE
USA 59 Rocket 2.3 05:22:53 10° WSW 05:23:14 10° WSW 05:23:34 10° WSW
SJ-12 3.7 05:19:56 10° N 05:23:43 66° WNW 05:27:30 10° SSW
YAOGAN 1 4.3 05:20:59 10° NNE 05:24:58 38° E 05:28:56 10° SSE
COSMOS 2406 4.3 05:20:37 10° W 05:25:02 23° NW 05:29:27 10° N
